DATCR LEZL-LDDU

Flight info

Callsign DATCR
Flight time 2h 35m
Altitude 36000
Route BUDIT M445 ETURA DCT RUXET N851 MHN M603 RIPAL DCT ELSAG DCT APSUX DCT ERIKA DCT AIOSA
Aircraft CL60/M-SBDE1E2E3FGHIJ1J4J5J7M3RWXYZ/LB1V1D1

Departure

Time 2026-04-27 12:37
Airport Seville Airport (LEZL)

Arrival

Time 2026-04-27 15:12
Airport Dubrovnik Ruđer Bošković Airport (LDDU)
Time Latitude Longitude Altitude Speed Heading
2026-04-27 11:42 37.42108 -5.90569 87 ft 0 kts 270°
2026-04-27 12:33 37.42108 -5.90574 87 ft 2 kts 270°
2026-04-27 12:33 37.42083 -5.90596 86 ft 7 kts 173°
2026-04-27 12:33 37.42042 -5.90593 85 ft 5 kts 174°
2026-04-27 12:33 37.42029 -5.90548 85 ft 5 kts 99°
2026-04-27 12:34 37.41991 -5.90531 84 ft 8 kts 204°
2026-04-27 12:34 37.41977 -5.90610 83 ft 11 kts 270°
2026-04-27 12:34 37.41977 -5.90721 81 ft 13 kts 270°
2026-04-27 12:34 37.41977 -5.90852 82 ft 15 kts 270°
2026-04-27 12:35 37.41951 -5.90981 82 ft 16 kts 239°
2026-04-27 12:35 37.41893 -5.91108 82 ft 14 kts 239°
2026-04-27 12:35 37.41841 -5.91191 81 ft 12 kts 199°
2026-04-27 12:35 37.41787 -5.91139 81 ft 10 kts 87°
2026-04-27 12:36 37.41788 -5.90991 80 ft 38 kts 90°
2026-04-27 12:36 37.41790 -5.90335 85 ft 108 kts 88°
2026-04-27 12:36 37.41799 -5.89174 157 ft 152 kts 88°
2026-04-27 12:36 37.41837 -5.87771 609 ft 165 kts 87°
2026-04-27 12:37 37.41894 -5.86357 1285 ft 166 kts 88°
2026-04-27 12:37 37.41936 -5.84911 1902 ft 173 kts 88°
2026-04-27 12:37 37.41981 -5.83301 2382 ft 194 kts 88°
2026-04-27 12:37 37.42030 -5.81575 3019 ft 206 kts 88°
2026-04-27 12:38 37.42087 -5.79744 3761 ft 214 kts 88°
2026-04-27 12:38 37.42152 -5.77858 4552 ft 218 kts 88°
2026-04-27 12:38 37.42222 -5.75954 5370 ft 227 kts 88°
2026-04-27 12:38 37.42302 -5.73972 6260 ft 234 kts 87°
2026-04-27 12:39 37.42518 -5.71938 7154 ft 242 kts 81°
2026-04-27 12:39 37.42849 -5.69735 7566 ft 270 kts 80°
2026-04-27 12:39 37.43206 -5.67358 7940 ft 282 kts 80°
2026-04-27 12:39 37.43567 -5.64946 8346 ft 283 kts 80°
2026-04-27 12:40 37.43926 -5.62526 8740 ft 288 kts 80°
2026-04-27 12:40 37.44303 -5.59969 9464 ft 300 kts 80°
2026-04-27 12:40 37.44678 -5.57418 10590 ft 298 kts 80°
2026-04-27 12:40 37.45048 -5.54894 11605 ft 299 kts 81°
2026-04-27 12:41 37.45424 -5.52313 12548 ft 303 kts 81°
2026-04-27 12:41 37.45805 -5.49690 13434 ft 308 kts 81°
2026-04-27 12:41 37.46190 -5.47034 14306 ft 312 kts 81°
2026-04-27 12:41 37.46577 -5.44356 15182 ft 314 kts 80°
2026-04-27 12:42 37.46964 -5.41666 15985 ft 318 kts 80°
2026-04-27 12:42 37.47359 -5.38914 16775 ft 321 kts 80°
2026-04-27 12:42 37.47754 -5.36161 17539 ft 324 kts 80°
2026-04-27 12:42 37.48151 -5.33378 18268 ft 328 kts 81°
2026-04-27 12:43 37.48553 -5.30554 18955 ft 332 kts 81°
2026-04-27 12:43 37.48963 -5.27676 19621 ft 337 kts 81°
2026-04-27 12:43 37.49374 -5.24776 20263 ft 341 kts 81°
2026-04-27 12:43 37.49789 -5.21838 20887 ft 345 kts 81°
2026-04-27 12:44 37.50210 -5.18863 21502 ft 349 kts 81°
2026-04-27 12:44 37.50632 -5.15862 22117 ft 352 kts 81°
2026-04-27 12:44 37.51058 -5.12833 22687 ft 356 kts 81°
2026-04-27 12:44 37.51489 -5.09758 23241 ft 361 kts 81°
2026-04-27 12:45 37.51924 -5.06648 23860 ft 364 kts 81°
2026-04-27 12:45 37.52368 -5.03471 24468 ft 367 kts 81°
2026-04-27 12:45 37.52804 -5.00344 25021 ft 370 kts 81°
2026-04-27 12:45 37.53252 -4.97120 25579 ft 373 kts 81°
2026-04-27 12:46 37.53698 -4.93900 26108 ft 376 kts 81°
2026-04-27 12:46 37.54149 -4.90644 26607 ft 379 kts 81°
2026-04-27 12:46 37.54575 -4.87559 27067 ft 382 kts 81°
2026-04-27 12:46 37.55035 -4.84223 27547 ft 385 kts 81°
2026-04-27 12:47 37.55498 -4.80851 28006 ft 388 kts 81°
2026-04-27 12:47 37.55956 -4.77515 28425 ft 391 kts 81°
2026-04-27 12:47 37.56422 -4.74105 28854 ft 394 kts 81°
2026-04-27 12:47 37.56891 -4.70674 29266 ft 397 kts 81°
2026-04-27 12:48 37.57355 -4.67263 29664 ft 400 kts 81°
2026-04-27 12:48 37.57829 -4.63778 30070 ft 402 kts 81°
2026-04-27 12:48 37.58304 -4.60276 30440 ft 404 kts 81°
2026-04-27 12:48 37.58779 -4.56762 30799 ft 407 kts 81°
2026-04-27 12:49 37.59256 -4.53233 31132 ft 410 kts 81°
2026-04-27 12:49 37.59733 -4.49686 31466 ft 412 kts 81°
2026-04-27 12:49 37.60212 -4.46124 31792 ft 414 kts 81°
2026-04-27 12:49 37.60691 -4.42548 32112 ft 416 kts 81°
2026-04-27 12:50 37.61171 -4.38959 32420 ft 418 kts 81°
2026-04-27 12:50 37.61652 -4.35352 32721 ft 420 kts 81°
2026-04-27 12:50 37.62133 -4.31729 33014 ft 421 kts 82°
2026-04-27 12:50 37.62621 -4.28054 33269 ft 423 kts 81°
2026-04-27 12:51 37.63090 -4.24517 33515 ft 425 kts 81°
2026-04-27 12:51 37.63582 -4.20788 33756 ft 427 kts 81°
2026-04-27 12:51 37.64063 -4.17134 34032 ft 427 kts 81°
2026-04-27 12:51 37.64549 -4.13440 34342 ft 426 kts 81°
2026-04-27 12:52 37.65029 -4.09773 34610 ft 425 kts 81°
2026-04-27 12:52 37.65510 -4.06101 34846 ft 425 kts 81°
2026-04-27 12:52 37.65990 -4.02415 35067 ft 425 kts 81°
2026-04-27 12:52 37.66469 -3.98732 35274 ft 426 kts 81°
2026-04-27 12:53 37.67425 -3.91356 35676 ft 426 kts 81°
2026-04-27 12:53 37.67899 -3.87687 35871 ft 426 kts 81°
2026-04-27 12:53 37.68367 -3.84046 36043 ft 427 kts 81°
2026-04-27 12:54 37.68846 -3.80316 36259 ft 427 kts 81°
2026-04-27 12:54 37.69313 -3.76665 36482 ft 427 kts 81°
2026-04-27 12:54 37.69788 -3.72944 36685 ft 428 kts 81°
2026-04-27 12:54 37.70257 -3.69263 36883 ft 429 kts 81°
2026-04-27 12:55 37.70730 -3.65539 37079 ft 429 kts 81°
2026-04-27 12:55 37.71176 -3.61792 37075 ft 434 kts 84°
2026-04-27 12:55 37.71628 -3.54165 37096 ft 442 kts 86°
2026-04-27 12:56 37.72059 -3.46358 37106 ft 450 kts 86°
2026-04-27 12:56 37.72494 -3.38429 37093 ft 459 kts 86°
2026-04-27 12:57 37.72934 -3.30352 37072 ft 466 kts 87°
2026-04-27 12:57 37.73369 -3.22276 37077 ft 472 kts 86°
2026-04-27 12:58 37.73812 -3.13985 37102 ft 477 kts 86°
2026-04-27 12:58 37.74253 -3.05609 37111 ft 482 kts 86°
2026-04-27 12:59 37.74699 -2.97070 37110 ft 486 kts 86°
2026-04-27 12:59 37.75364 -2.88578 37102 ft 491 kts 79°
2026-04-27 13:00 37.77388 -2.80342 37118 ft 494 kts 65°
2026-04-27 13:00 37.80810 -2.72867 37112 ft 495 kts 52°
2026-04-27 13:01 37.85348 -2.66314 37118 ft 496 kts 44°
2026-04-27 13:01 37.90115 -2.60029 37136 ft 497 kts 44°
2026-04-27 13:02 37.94902 -2.53688 37127 ft 498 kts 44°
2026-04-27 13:02 37.99672 -2.47349 37134 ft 498 kts 44°
2026-04-27 13:03 38.04433 -2.41003 37126 ft 498 kts 44°
2026-04-27 13:03 38.09194 -2.34640 37123 ft 498 kts 45°
2026-04-27 13:04 38.13923 -2.28304 37130 ft 497 kts 45°
2026-04-27 13:04 38.18307 -2.21496 37128 ft 499 kts 56°
2026-04-27 13:05 38.21437 -2.13687 37120 ft 501 kts 69°
2026-04-27 13:05 38.23223 -2.05132 37133 ft 502 kts 77°
2026-04-27 13:06 38.24739 -1.96494 37129 ft 503 kts 77°
2026-04-27 13:06 38.26243 -1.87854 37129 ft 503 kts 77°
2026-04-27 13:07 38.27739 -1.79193 37112 ft 502 kts 76°
2026-04-27 13:07 38.29228 -1.70505 37093 ft 502 kts 77°
2026-04-27 13:08 38.30699 -1.61866 37100 ft 502 kts 77°
2026-04-27 13:08 38.32159 -1.53240 37105 ft 501 kts 77°
2026-04-27 13:09 38.33622 -1.44547 37114 ft 501 kts 76°
2026-04-27 13:09 38.35065 -1.35925 37115 ft 501 kts 76°
2026-04-27 13:10 38.36518 -1.27188 37123 ft 501 kts 77°
2026-04-27 13:10 38.37946 -1.18565 37125 ft 501 kts 77°
2026-04-27 13:11 38.39372 -1.09902 37124 ft 500 kts 77°
2026-04-27 13:11 38.40790 -1.01241 37127 ft 500 kts 77°
2026-04-27 13:12 38.42200 -0.92593 37121 ft 500 kts 77°
2026-04-27 13:12 38.43607 -0.83915 37123 ft 499 kts 77°
2026-04-27 13:13 38.45000 -0.75278 37124 ft 499 kts 77°
2026-04-27 13:13 38.46382 -0.66666 37124 ft 499 kts 77°
2026-04-27 13:14 38.47771 -0.57962 37120 ft 499 kts 77°
2026-04-27 13:14 38.49141 -0.49343 37117 ft 499 kts 77°
2026-04-27 13:15 38.50513 -0.40662 37119 ft 499 kts 77°
2026-04-27 13:15 38.51878 -0.31984 37113 ft 499 kts 77°
2026-04-27 13:16 38.53232 -0.23330 37104 ft 499 kts 77°
2026-04-27 13:16 38.54584 -0.14646 37107 ft 499 kts 77°
2026-04-27 13:17 38.55925 -0.05982 37107 ft 499 kts 77°
2026-04-27 13:17 38.57252 0.02631 37105 ft 498 kts 78°
2026-04-27 13:18 38.58583 0.11315 37104 ft 498 kts 78°
2026-04-27 13:18 38.59902 0.19967 37106 ft 498 kts 77°
2026-04-27 13:19 38.61220 0.28655 37107 ft 498 kts 77°
2026-04-27 13:19 38.62524 0.37298 37110 ft 498 kts 77°
2026-04-27 13:20 38.63830 0.46003 37111 ft 498 kts 77°
2026-04-27 13:20 38.65118 0.54633 37108 ft 498 kts 77°
2026-04-27 13:21 38.66404 0.63294 37107 ft 498 kts 77°
2026-04-27 13:21 38.68241 0.71759 37104 ft 495 kts 67°
2026-04-27 13:22 38.70831 0.79937 37109 ft 495 kts 66°
2026-04-27 13:22 38.73391 0.88045 37104 ft 494 kts 66°
2026-04-27 13:23 38.75956 0.96210 37109 ft 495 kts 66°
2026-04-27 13:23 38.78501 1.04354 37116 ft 494 kts 66°
2026-04-27 13:24 38.81041 1.12517 37120 ft 494 kts 66°
2026-04-27 13:24 38.83563 1.20656 37117 ft 494 kts 66°
2026-04-27 13:25 38.86086 1.28826 37111 ft 494 kts 66°
2026-04-27 13:25 38.88596 1.36983 37120 ft 493 kts 66°
2026-04-27 13:26 38.91104 1.45165 37121 ft 493 kts 66°
2026-04-27 13:26 38.93546 1.53331 37122 ft 493 kts 67°
2026-04-27 13:27 38.95969 1.61544 37124 ft 493 kts 67°
2026-04-27 13:27 38.98375 1.69726 37119 ft 492 kts 68°
2026-04-27 13:28 39.00791 1.77963 37112 ft 492 kts 68°
2026-04-27 13:28 39.03195 1.86187 37130 ft 492 kts 68°
2026-04-27 13:29 39.05577 1.94362 37128 ft 492 kts 68°
2026-04-27 13:29 39.07980 2.02634 37114 ft 492 kts 68°
2026-04-27 13:30 39.10363 2.10865 37124 ft 492 kts 68°
2026-04-27 13:30 39.12734 2.19079 37127 ft 492 kts 68°
2026-04-27 13:31 39.15094 2.27280 37120 ft 491 kts 68°
2026-04-27 13:31 39.17455 2.35513 37106 ft 491 kts 68°
2026-04-27 13:32 39.19812 2.43757 37105 ft 491 kts 68°
2026-04-27 13:32 39.22163 2.52003 37110 ft 490 kts 68°
2026-04-27 13:33 39.24491 2.60196 37094 ft 490 kts 68°
2026-04-27 13:33 39.26821 2.68426 37128 ft 489 kts 68°
2026-04-27 13:34 39.29142 2.76641 37127 ft 488 kts 68°
2026-04-27 13:34 39.31448 2.84829 37125 ft 488 kts 68°
2026-04-27 13:35 39.33757 2.93050 37128 ft 488 kts 68°
2026-04-27 13:35 39.36058 3.01272 37115 ft 488 kts 68°
2026-04-27 13:36 39.38358 3.09513 37121 ft 487 kts 68°
2026-04-27 13:36 39.40629 3.17678 37132 ft 486 kts 68°
2026-04-27 13:37 39.43015 3.25830 37127 ft 485 kts 63°
2026-04-27 13:37 39.46313 3.33386 37113 ft 483 kts 57°
2026-04-27 13:38 39.49741 3.40789 37125 ft 483 kts 57°
2026-04-27 13:38 39.53178 3.48244 37122 ft 482 kts 57°
2026-04-27 13:39 39.56595 3.55681 37115 ft 482 kts 57°
2026-04-27 13:39 39.59996 3.63109 37117 ft 482 kts 57°
2026-04-27 13:40 39.63407 3.70584 37112 ft 481 kts 58°
2026-04-27 13:40 39.66798 3.78034 37116 ft 481 kts 57°
2026-04-27 13:41 39.70196 3.85522 37118 ft 481 kts 58°
2026-04-27 13:41 39.73578 3.92994 37128 ft 481 kts 57°
2026-04-27 13:42 39.76961 4.00488 37122 ft 482 kts 57°
2026-04-27 13:42 39.80313 4.07933 37127 ft 481 kts 57°
2026-04-27 13:43 39.83683 4.15438 37127 ft 481 kts 57°
2026-04-27 13:43 39.86656 4.23234 37137 ft 483 kts 69°
2026-04-27 13:44 39.88468 4.31594 37130 ft 485 kts 72°
2026-04-27 13:44 39.90239 4.40053 37134 ft 485 kts 72°
2026-04-27 13:45 39.91999 4.48518 37133 ft 485 kts 72°
2026-04-27 13:45 39.93743 4.56951 37132 ft 484 kts 72°
2026-04-27 13:46 39.95473 4.65364 37134 ft 485 kts 73°
2026-04-27 13:46 39.97212 4.73860 37125 ft 485 kts 73°
2026-04-27 13:47 39.98970 4.82328 37136 ft 485 kts 72°
2026-04-27 13:47 40.00746 4.90770 37136 ft 485 kts 72°
2026-04-27 13:48 40.02514 4.99213 37133 ft 485 kts 72°
2026-04-27 13:48 40.04282 5.07693 37142 ft 485 kts 72°
2026-04-27 13:49 40.06033 5.16127 37135 ft 485 kts 72°
2026-04-27 13:49 40.07782 5.24591 37130 ft 486 kts 72°
2026-04-27 13:50 40.09538 5.33125 37139 ft 486 kts 72°
2026-04-27 13:50 40.11278 5.41617 37139 ft 487 kts 72°
2026-04-27 13:51 40.13017 5.50136 37132 ft 487 kts 72°
2026-04-27 13:51 40.14741 5.58617 37137 ft 487 kts 72°
2026-04-27 13:52 40.16468 5.67145 37132 ft 487 kts 73°
2026-04-27 13:52 40.18192 5.75699 37138 ft 487 kts 73°
2026-04-27 13:53 40.20764 5.88530 37132 ft 488 kts 73°
2026-04-27 13:54 40.22461 5.97037 37142 ft 488 kts 73°
2026-04-27 13:54 40.24167 6.05624 37144 ft 488 kts 73°
2026-04-27 13:55 40.25864 6.14203 37141 ft 488 kts 73°
2026-04-27 13:55 40.27557 6.22799 37141 ft 488 kts 73°
2026-04-27 13:56 40.29232 6.31337 37139 ft 488 kts 73°
2026-04-27 13:56 40.30917 6.39966 37138 ft 488 kts 73°
2026-04-27 13:57 40.32584 6.48535 37134 ft 489 kts 73°
2026-04-27 13:57 40.34246 6.57119 37134 ft 488 kts 73°
2026-04-27 13:58 40.35906 6.65728 37134 ft 488 kts 74°
2026-04-27 13:58 40.37564 6.74363 37134 ft 488 kts 74°
2026-04-27 13:59 40.39216 6.83003 37140 ft 489 kts 74°
2026-04-27 13:59 40.40845 6.91562 37138 ft 489 kts 74°
2026-04-27 14:00 40.42480 7.00187 37139 ft 489 kts 75°
2026-04-27 14:00 40.44107 7.08812 37135 ft 489 kts 74°
2026-04-27 14:01 40.45736 7.17482 37139 ft 489 kts 75°
2026-04-27 14:01 40.47347 7.26096 37140 ft 489 kts 75°
2026-04-27 14:02 40.48963 7.34777 37128 ft 489 kts 75°
2026-04-27 14:02 40.50558 7.43381 37126 ft 489 kts 75°
2026-04-27 14:03 40.52166 7.52095 37127 ft 490 kts 75°
2026-04-27 14:03 40.53756 7.60750 37133 ft 489 kts 75°
2026-04-27 14:04 40.55342 7.69425 37133 ft 490 kts 75°
2026-04-27 14:04 40.56914 7.78058 37130 ft 490 kts 75°
2026-04-27 14:05 40.58490 7.86756 37120 ft 490 kts 75°
2026-04-27 14:05 40.60055 7.95433 37127 ft 490 kts 76°
2026-04-27 14:06 40.61783 8.04100 37134 ft 489 kts 71°
2026-04-27 14:06 40.63800 8.12563 37120 ft 489 kts 71°
2026-04-27 14:07 40.65818 8.21087 37125 ft 489 kts 71°
2026-04-27 14:07 40.67827 8.29617 37121 ft 489 kts 71°
2026-04-27 14:08 40.69823 8.38133 37129 ft 489 kts 71°
2026-04-27 14:08 40.71815 8.46671 37127 ft 489 kts 71°
2026-04-27 14:09 40.73804 8.55238 37116 ft 489 kts 71°
2026-04-27 14:09 40.75782 8.63785 37134 ft 489 kts 71°
2026-04-27 14:10 40.77756 8.72353 37132 ft 489 kts 72°
2026-04-27 14:10 40.79721 8.80918 37121 ft 490 kts 72°
2026-04-27 14:11 40.81685 8.89511 37123 ft 489 kts 72°
2026-04-27 14:11 40.83638 8.98092 37129 ft 490 kts 72°
2026-04-27 14:12 40.85581 9.06665 37121 ft 490 kts 72°
2026-04-27 14:12 40.87512 9.15216 37121 ft 490 kts 72°
2026-04-27 14:13 40.89447 9.23821 37132 ft 490 kts 72°
2026-04-27 14:13 40.91376 9.32432 37125 ft 490 kts 72°
2026-04-27 14:14 40.93294 9.41030 37125 ft 490 kts 72°
2026-04-27 14:14 40.95213 9.49665 37128 ft 489 kts 72°
2026-04-27 14:15 40.97120 9.58279 37130 ft 490 kts 72°
2026-04-27 14:15 40.99010 9.66850 37133 ft 489 kts 73°
2026-04-27 14:16 41.00904 9.75470 37133 ft 489 kts 73°
2026-04-27 14:16 41.02802 9.84140 37128 ft 489 kts 73°
2026-04-27 14:17 41.04681 9.92763 37137 ft 489 kts 73°
2026-04-27 14:17 41.06547 10.01360 37133 ft 489 kts 73°
2026-04-27 14:18 41.08414 10.09996 37133 ft 489 kts 73°
2026-04-27 14:18 41.10284 10.18680 37132 ft 489 kts 73°
2026-04-27 14:19 41.12138 10.27325 37135 ft 489 kts 73°
2026-04-27 14:19 41.13973 10.35917 37132 ft 489 kts 73°
2026-04-27 14:20 41.15814 10.44573 37136 ft 489 kts 73°
2026-04-27 14:20 41.17656 10.53262 37136 ft 489 kts 73°
2026-04-27 14:21 41.19276 10.61982 37137 ft 490 kts 78°
2026-04-27 14:21 41.20530 10.70912 37141 ft 490 kts 78°
2026-04-27 14:22 41.21769 10.79744 37139 ft 490 kts 78°
2026-04-27 14:22 41.23005 10.88603 37133 ft 490 kts 78°
2026-04-27 14:23 41.24242 10.97507 37138 ft 490 kts 78°
2026-04-27 14:23 41.25464 11.06345 37135 ft 490 kts 78°
2026-04-27 14:24 41.26685 11.15230 37134 ft 491 kts 78°
2026-04-27 14:24 41.27899 11.24109 37136 ft 491 kts 78°
2026-04-27 14:25 41.29112 11.33034 37139 ft 491 kts 78°
2026-04-27 14:25 41.30317 11.41951 37137 ft 492 kts 78°
2026-04-27 14:26 41.31519 11.50898 37140 ft 492 kts 78°
2026-04-27 14:26 41.32703 11.59768 37139 ft 492 kts 78°
2026-04-27 14:27 41.33897 11.68763 37133 ft 492 kts 79°
2026-04-27 14:27 41.35078 11.77718 37149 ft 493 kts 79°
2026-04-27 14:28 41.36246 11.86621 37133 ft 493 kts 79°
2026-04-27 14:28 41.37415 11.95598 37140 ft 493 kts 79°
2026-04-27 14:29 41.38579 12.04589 37135 ft 494 kts 79°
2026-04-27 14:29 41.39734 12.13570 37129 ft 494 kts 79°
2026-04-27 14:30 41.40884 12.22569 37135 ft 494 kts 79°
2026-04-27 14:30 41.42022 12.31527 37133 ft 495 kts 79°
2026-04-27 14:31 41.43160 12.40555 37140 ft 495 kts 79°
2026-04-27 14:31 41.44289 12.49561 37130 ft 495 kts 79°
2026-04-27 14:32 41.45416 12.58614 37145 ft 495 kts 79°
2026-04-27 14:32 41.46538 12.67686 37139 ft 496 kts 79°
2026-04-27 14:33 41.47646 12.76710 37139 ft 496 kts 79°
2026-04-27 14:33 41.48750 12.85763 37138 ft 496 kts 79°
2026-04-27 14:34 41.49852 12.94857 37132 ft 496 kts 79°
2026-04-27 14:34 41.50938 13.03873 37139 ft 497 kts 79°
2026-04-27 14:35 41.52024 13.12959 37142 ft 497 kts 79°
2026-04-27 14:35 41.53104 13.22063 37139 ft 498 kts 79°
2026-04-27 14:36 41.54176 13.31160 37152 ft 498 kts 79°
2026-04-27 14:36 41.55237 13.40233 37162 ft 498 kts 79°
2026-04-27 14:37 41.56292 13.49309 37174 ft 498 kts 79°
2026-04-27 14:37 41.57321 13.58231 37168 ft 498 kts 79°
2026-04-27 14:38 41.58368 13.67366 37160 ft 498 kts 79°
2026-04-27 14:38 41.59405 13.76480 37158 ft 498 kts 80°
2026-04-27 14:39 41.60434 13.85598 37164 ft 498 kts 79°
2026-04-27 14:39 41.61453 13.94691 37166 ft 498 kts 79°
2026-04-27 14:40 41.62470 14.03841 37172 ft 499 kts 79°
2026-04-27 14:40 41.63470 14.13011 37175 ft 499 kts 80°
2026-04-27 14:41 41.64460 14.22174 37175 ft 499 kts 80°
2026-04-27 14:41 41.65438 14.31294 37170 ft 500 kts 80°
2026-04-27 14:42 41.66420 14.40513 37159 ft 500 kts 79°
2026-04-27 14:42 41.67392 14.49716 37150 ft 500 kts 79°
2026-04-27 14:43 41.68353 14.58893 37143 ft 501 kts 79°
2026-04-27 14:43 41.69314 14.68132 37139 ft 501 kts 81°
2026-04-27 14:44 41.70260 14.77305 37129 ft 501 kts 81°
2026-04-27 14:44 41.71201 14.86504 37129 ft 501 kts 80°
2026-04-27 14:45 41.72136 14.95715 37130 ft 502 kts 81°
2026-04-27 14:45 41.73063 15.04926 37128 ft 502 kts 81°
2026-04-27 14:46 41.73985 15.14173 37121 ft 503 kts 81°
2026-04-27 14:46 41.74898 15.23401 37119 ft 503 kts 81°
2026-04-27 14:47 41.75805 15.32654 37119 ft 503 kts 81°
2026-04-27 14:47 41.76703 15.41888 37115 ft 503 kts 81°
2026-04-27 14:48 41.77599 15.51173 37114 ft 503 kts 81°
2026-04-27 14:48 41.78925 15.65081 37130 ft 503 kts 81°
2026-04-27 14:49 41.79796 15.74308 37150 ft 503 kts 81°
2026-04-27 14:49 41.80662 15.83568 37140 ft 503 kts 81°
2026-04-27 14:50 41.81524 15.92871 37141 ft 503 kts 81°
2026-04-27 14:50 41.82373 16.02116 37135 ft 503 kts 81°
2026-04-27 14:51 41.83215 16.11368 37125 ft 503 kts 81°
2026-04-27 14:51 41.84053 16.20665 37119 ft 503 kts 81°
2026-04-27 14:52 41.84884 16.29972 37109 ft 503 kts 81°
2026-04-27 14:52 41.85704 16.39235 37112 ft 503 kts 81°
2026-04-27 14:53 41.86519 16.48527 36919 ft 500 kts 81°
2026-04-27 14:53 41.86919 16.53128 36454 ft 492 kts 81°
2026-04-27 14:53 41.87310 16.57639 35983 ft 486 kts 81°
2026-04-27 14:54 41.87696 16.62124 35437 ft 483 kts 81°
2026-04-27 14:54 41.88076 16.66547 34918 ft 479 kts 82°
2026-04-27 14:54 41.88450 16.70924 34358 ft 474 kts 82°
2026-04-27 14:54 41.88821 16.75289 33884 ft 467 kts 82°
2026-04-27 14:55 41.89182 16.79551 33367 ft 461 kts 82°
2026-04-27 14:55 41.89538 16.83772 32857 ft 456 kts 82°
2026-04-27 14:55 41.89892 16.87998 32369 ft 450 kts 82°
2026-04-27 14:55 41.90237 16.92129 31862 ft 444 kts 82°
2026-04-27 14:56 41.90574 16.96179 31385 ft 439 kts 82°
2026-04-27 14:56 41.91050 17.00202 30844 ft 430 kts 72°
2026-04-27 14:56 41.92235 17.03793 30231 ft 416 kts 54°
2026-04-27 14:56 41.93844 17.06915 29598 ft 407 kts 51°
2026-04-27 14:57 41.95471 17.10003 28955 ft 401 kts 52°
2026-04-27 14:57 41.97057 17.13027 28316 ft 395 kts 52°
2026-04-27 14:57 41.98615 17.16002 27675 ft 389 kts 52°
2026-04-27 14:57 42.00148 17.18933 27034 ft 383 kts 52°
2026-04-27 14:58 42.01659 17.21825 26392 ft 378 kts 52°
2026-04-27 14:58 42.03155 17.24695 25749 ft 373 kts 52°
2026-04-27 14:58 42.04645 17.27554 25109 ft 369 kts 52°
2026-04-27 14:58 42.06087 17.30326 24484 ft 364 kts 52°
2026-04-27 14:59 42.07518 17.33079 23859 ft 360 kts 52°
2026-04-27 14:59 42.08944 17.35826 23241 ft 356 kts 52°
2026-04-27 14:59 42.10357 17.38548 22635 ft 351 kts 52°
2026-04-27 14:59 42.11746 17.41230 22036 ft 347 kts 52°
2026-04-27 15:00 42.13116 17.43876 21446 ft 346 kts 53°
2026-04-27 15:00 42.14516 17.46578 20802 ft 364 kts 53°
2026-04-27 15:00 42.15988 17.49421 20043 ft 379 kts 53°
2026-04-27 15:00 42.17504 17.52355 19147 ft 384 kts 53°
2026-04-27 15:01 42.19028 17.55307 18156 ft 390 kts 54°
2026-04-27 15:01 42.20580 17.58317 17140 ft 395 kts 54°
2026-04-27 15:01 42.22138 17.61341 16138 ft 398 kts 54°
2026-04-27 15:01 42.23715 17.64406 15119 ft 399 kts 54°
2026-04-27 15:02 42.25275 17.67442 14148 ft 399 kts 55°
2026-04-27 15:02 42.26860 17.70529 13135 ft 398 kts 55°
2026-04-27 15:02 42.28425 17.73578 12051 ft 392 kts 55°
2026-04-27 15:02 42.29950 17.76556 10981 ft 384 kts 55°
2026-04-27 15:03 42.31445 17.79478 9948 ft 376 kts 55°
2026-04-27 15:03 42.32896 17.82318 9165 ft 361 kts 55°
2026-04-27 15:03 42.34268 17.85007 8707 ft 340 kts 55°
2026-04-27 15:03 42.35576 17.87574 8344 ft 322 kts 55°
2026-04-27 15:04 42.36810 17.89999 7964 ft 308 kts 55°
2026-04-27 15:04 42.37992 17.92325 7622 ft 295 kts 55°
2026-04-27 15:04 42.39150 17.94605 7315 ft 297 kts 55°
2026-04-27 15:04 42.40320 17.96910 6987 ft 292 kts 55°
2026-04-27 15:05 42.41448 17.99135 6649 ft 285 kts 55°
2026-04-27 15:05 42.42555 18.01321 6341 ft 278 kts 55°
2026-04-27 15:05 42.43623 18.03430 6036 ft 270 kts 55°
2026-04-27 15:05 42.44669 18.05498 5751 ft 264 kts 55°
2026-04-27 15:06 42.45699 18.07535 5350 ft 263 kts 55°
2026-04-27 15:06 42.46737 18.09589 4921 ft 263 kts 55°
2026-04-27 15:06 42.47592 18.11757 4476 ft 263 kts 72°
2026-04-27 15:06 42.47772 18.14171 4113 ft 259 kts 97°
2026-04-27 15:07 42.47231 18.16419 4021 ft 246 kts 116°
2026-04-27 15:07 42.46447 18.18417 4002 ft 234 kts 116°
2026-04-27 15:07 42.45692 18.20346 3684 ft 233 kts 116°
2026-04-27 15:07 42.44946 18.22255 3445 ft 228 kts 116°
2026-04-27 15:08 42.44214 18.24130 3193 ft 223 kts 115°
2026-04-27 15:08 42.43887 18.26119 2952 ft 213 kts 82°
2026-04-27 15:08 42.44497 18.27782 2862 ft 189 kts 43°
2026-04-27 15:08 42.45406 18.28819 3080 ft 161 kts 38°
2026-04-27 15:09 42.46251 18.29718 3173 ft 143 kts 38°
2026-04-27 15:09 42.47020 18.30498 3273 ft 137 kts 31°
2026-04-27 15:09 42.47866 18.31103 3190 ft 139 kts 26°
2026-04-27 15:09 42.48737 18.31677 2840 ft 138 kts 25°
2026-04-27 15:10 42.49584 18.32242 2457 ft 144 kts 23°
2026-04-27 15:10 42.50585 18.32787 2325 ft 147 kts 16°
2026-04-27 15:10 42.51541 18.33075 1931 ft 141 kts
2026-04-27 15:10 42.52494 18.33001 1499 ft 137 kts 347°
2026-04-27 15:11 42.53381 18.32569 1193 ft 135 kts 329°
2026-04-27 15:11 42.54082 18.31795 1089 ft 128 kts 311°
2026-04-27 15:11 42.54575 18.30808 934 ft 125 kts 296°
2026-04-27 15:11 42.54973 18.29766 765 ft 122 kts 298°
2026-04-27 15:12 42.55375 18.28745 627 ft 120 kts 297°
2026-04-27 15:12 42.55763 18.27761 500 ft 117 kts 296°
2026-04-27 15:12 42.56080 18.26958 513 ft 59 kts 298°
2026-04-27 15:12 42.56173 18.26709 518 ft 15 kts 280°
2026-04-27 15:13 42.56155 18.26619 519 ft 6 kts 239°
2026-04-27 15:13 42.56145 18.26595 519 ft 2 kts 242°
2026-04-27 15:13 42.56128 18.26553 519 ft 6 kts 243°
2026-04-27 15:13 42.56088 18.26513 519 ft 8 kts 163°
2026-04-27 15:14 42.56041 18.26588 518 ft 13 kts 117°
2026-04-27 15:14 42.56000 18.26692 517 ft 7 kts 117°
2026-04-27 15:14 42.55968 18.26771 515 ft 12 kts 118°
2026-04-27 15:14 42.55922 18.26887 513 ft 13 kts 118°
2026-04-27 15:15 42.55875 18.27009 511 ft 14 kts 118°
2026-04-27 15:15 42.55837 18.27104 508 ft 10 kts 116°
2026-04-27 15:15 42.55803 18.27188 506 ft 8 kts 127°
2026-04-27 15:15 42.55750 18.27180 506 ft 6 kts 208°
2026-04-27 15:16 42.55727 18.27141 507 ft 6 kts 283°
2026-04-27 15:16 42.55749 18.27083 508 ft 7 kts 298°
2026-04-27 15:16 42.55769 18.27034 509 ft 4 kts 311°
2026-04-27 15:16 42.55799 18.27045 509 ft 5 kts 26°
2026-04-27 15:17 42.55804 18.27048 509 ft 0 kts 23°